Simultaneous Nadir Overpasses (SNOs) Predictions

Prediction of SNOs between AQUA and NOAA-19 Satellite Orbit:

Table of predicted SNOs for the next 14.0 days since TLE Epoch: 5/4/2024
Index Date (AQUA) Time (AQUA) Lat,Lon (AQUA) SZA (AQUA ) Date (NOAA-19) Time (NOAA-19) Lat,Lon (NOAA-19) SZA (NOAA-19 ) Distance(km) Time Diff (sec)
1 05/04/2024 15:09:09 75.77, -50.47 59.47 05/04/2024 15:08:47 75.80, -50.46 59.51 3.33 22
2 05/04/2024 15:58:35 -75.99, 116.50 120.31 05/04/2024 15:59:46 -76.01, 117.52 120.31 27.49 71
3 05/06/2024 18:59:32 -75.77, 71.97 121.14 05/06/2024 18:58:54 -75.78, 72.00 121.12 1.56 38
4 05/06/2024 19:48:56 75.81,-120.50 58.90 05/06/2024 19:49:47 75.83,-120.57 58.91 2.38 51
5 05/08/2024 22:49:56 75.77,-165.60 58.28 05/08/2024 22:48:51 75.75,-165.54 58.26 2.98 65
6 05/08/2024 23:39:18 -75.80, 1.99 121.71 05/08/2024 23:39:54 -75.82, 1.93 121.68 2.70 36
7 05/11/2024 02:40:14 -75.60, -42.63 122.47 05/11/2024 02:39:03 -75.52, -43.78 122.52 32.90 71
8 05/11/2024 03:29:41 75.79, 124.45 57.73 05/11/2024 03:29:50 75.81, 124.47 57.75 1.89 9
9 05/13/2024 07:20:02 -75.80,-113.13 122.80 05/13/2024 07:19:58 -75.77,-113.15 122.83 3.58 4
10 05/13/2024 08:09:33 76.24, 53.14 57.65 05/13/2024 08:10:39 76.26, 55.91 57.65 73.27 66
11 05/15/2024 11:10:22 75.77, 9.40 56.66 05/15/2024 11:09:52 75.76, 9.42 56.65 1.12 30
12 05/15/2024 11:59:45 -75.84, 176.84 123.28 05/15/2024 12:00:56 -75.82, 176.84 123.30 2.50 71
13 05/17/2024 15:00:41 -75.76, 131.91 123.85 05/17/2024 14:59:59 -75.77, 131.97 123.83 2.56 42



Historial Predications of SNOs between AQUA and NOAA-19
